FW8448 Weather Reports


Display with metric or nautical units.
time (UTC)temp
F
wind
direction
speed
MPH
gust
MPH
rain 1hr
in
rain 24hr
in
rain mn
in
humidity
%
barometer
mb
20260905193056 90 269 2.0 9.0 0.00 0.00 0.00 69 1013.0
20260905191609 89 271 1.0 9.0 0.00 0.00 0.00 72 1013.2
20260905190117 88 292 3.0 8.0 0.00 0.00 0.00 73 1013.5
20260905184623 88 0 0.0 0.0 0.00 0.00 0.00 71 1013.7
20260905183104 88 0 0.0 7.0 0.00 0.00 0.00 71 1014.0
20260905181559 87 273 3.0 10.0 0.00 0.00 0.00 71 1013.9
20260905180108 85 289 9.0 13.0 0.00 0.00 0.00 70 1014.0
20260905174603 85 271 4.0 10.0 0.00 0.00 0.00 74 1014.0
20260905173116 84 273 5.0 13.0 0.00 0.00 0.00 73 1014.0
20260905171605 83 279 6.0 10.0 0.00 0.00 0.00 73 1014.2
20260905170101 82 267 4.0 10.0 0.00 0.00 0.00 78 1014.5
20260905164603 82 254 1.0 6.0 0.00 0.00 0.00 75 1015.0
20260905163110 84 243 5.0 9.0 0.00 0.00 0.00 72 1015.0
20260905161603 83 283 2.0 7.0 0.00 0.00 0.00 76 1015.2
20260905160059 83 198 4.0 11.0 0.00 0.00 0.00 77 1015.1
20260905154616 82 213 2.0 8.0 0.00 0.00 0.00 76 1015.0
20260905153107 81 157 1.0 8.0 0.00 0.00 0.00 79 1015.0
20260905151613 80 236 2.0 5.0 0.00 0.00 0.00 78 1014.6
20260905150059 79 223 2.0 7.0 0.00 0.00 0.00 78 1014.5
20260905144559 78 245 1.0 6.0 0.00 0.00 0.00 83 1014.6
20260905143100 78 0 0.0 0.0 0.00 0.00 0.00 82 1014.7
20260905141602 76 0 0.0 0.0 0.00 0.00 0.00 82 1014.9
20260905140059 75 0 0.0 6.0 0.00 0.00 0.00 84 1015.0
20260905134559 74 187 1.0 7.0 0.00 0.00 0.00 86 1015.2
20260905133103 74 0 2.0 6.0 0.00 0.00 0.00 86 1015.4
20260905131603 73 110 0.0 6.0 0.00 0.00 0.00 87 1015.4
20260905130059 72 180 2.0 10.0 0.00 0.00 0.00 87 1015.5
20260905124601 71 63 1.0 7.0 0.00 0.00 0.00 88 1015.6
20260905123104 69 0 0.0 2.0 0.00 0.00 0.00 90 1015.4
20260905121602 69 62 2.0 5.0 0.00 0.00 0.00 90 1015.1
20260905120057 70 79 2.0 9.0 0.00 0.00 0.00 89 1015.0
20260905114557 69 80 1.0 6.0 0.00 0.00 0.00 89 1015.3
20260905113101 69 38 0.0 5.0 0.00 0.00 0.00 90 1015.3
20260905111645 70 109 1.0 7.0 0.00 0.00 0.00 89 1015.1
20260905110057 70 94 2.0 11.0 0.00 0.00 0.00 89 1015.2
20260905104604 70 88 4.0 12.0 0.00 0.00 0.00 89 1015.6
20260905103104 70 69 5.0 12.0 0.00 0.00 0.00 89 1015.6
20260905101605 71 81 6.0 13.0 0.00 0.00 0.00 88 1015.7
20260905100106 71 51 6.0 18.0 0.00 0.00 0.00 87 1015.7
20260905094601 71 150 9.0 21.0 0.00 0.00 0.00 87 1015.5
20260905093100 71 61 10.0 20.0 0.00 0.00 0.00 94 1015.5
20260905091601 71 0 0.0 0.0 0.00 0.00 0.00 97 1014.1
20260905090058 71 0 0.0 0.0 0.00 0.00 0.00 97 1014.1
20260905084605 71 0 0.0 0.0 0.00 0.00 0.00 96 1014.0
20260905083053 72 0 0.0 0.0 0.00 0.00 0.00 97 1013.8
20260905081558 72 0 0.0 1.0 0.00 0.00 0.00 97 1013.8
20260905080110 72 0 0.0 0.0 0.00 0.00 0.00 97 1013.7
20260905074557 72 0 0.0 0.0 0.00 0.00 0.00 97 1013.6
20260905073103 71 0 0.0 0.0 0.00 0.00 0.00 97 1013.4
20260905071601 71 0 0.0 0.0 0.00 0.00 0.00 97 1013.1
20260905070101 71 0 0.0 0.0 0.00 0.00 0.00 97 1013.0
20260905064552 71 0 0.0 0.0 0.00 0.00 0.00 97 1013.1
20260905063055 71 0 0.0 0.0 0.00 0.00 0.00 97 1013.3
20260905061601 71 0 0.0 0.0 0.00 0.00 0.00 96 1013.7
20260905060100 71 0 0.0 0.0 0.00 0.00 0.00 97 1013.8
20260905054557 71 0 0.0 0.0 0.00 0.00 0.00 96 1013.9
20260905053108 71 0 0.0 0.0 0.00 0.00 0.00 96 1014.2
20260905051558 72 0 0.0 0.0 0.00 0.00 0.00 96 1014.3
20260905050106 72 0 0.0 0.0 0.00 0.00 0.00 96 1014.4
20260905044559 72 0 0.0 0.0 0.00 0.00 0.00 96 1014.5
20260905043101 72 0 0.0 0.0 0.00 0.00 0.00 96 1014.5
20260905041605 72 0 0.0 0.0 0.00 0.00 0.00 96 1014.6
20260905040105 72 0 0.0 0.0 0.00 0.00 0.00 96 1014.7
20260905034609 72 0 0.0 0.0 0.00 0.00 0.00 95 1014.7
20260905033117 73 0 0.0 0.0 0.00 0.00 0.00 95 1014.9
20260905031611 73 0 0.0 0.0 0.00 0.00 0.00 95 1014.8
20260905024604 74 0 0.0 0.0 0.00 0.00 0.00 95 1014.8
20260905023126 74 0 0.0 0.0 0.00 0.00 0.00 95 1014.7
20260905021604 74 0 0.0 0.0 0.00 0.00 0.00 94 1014.7
20260905020058 74 0 0.0 0.0 0.00 0.00 0.00 94 1014.6
20260905014604 75 0 0.0 1.0 0.00 0.00 0.00 93 1014.4
20260905013101 76 0 0.0 0.0 0.00 0.00 0.00 92 1014.4
20260905011601 76 0 0.0 0.0 0.00 0.00 0.00 91 1014.3
20260905010112 77 0 0.0 1.0 0.00 0.00 0.00 90 1014.3
20260905004620 78 0 0.0 1.0 0.00 0.00 0.00 89 1014.2
20260905003053 80 0 0.0 0.0 0.00 0.00 0.00 87 1014.2
20260905001602 81 0 0.0 1.0 0.00 0.00 0.00 85 1014.2
20260905000132 82 0 0.0 2.0 0.00 0.00 0.00 83 1014.2
20260904234607 85 205 0.0 1.0 0.00 0.00 0.00 79 1014.2
20260904233100 86 0 0.0 2.0 0.00 0.00 0.00 78 1014.3
20260904231559 86 0 1.0 4.0 0.00 0.00 0.00 78 1014.3
20260904230112 87 0 0.0 2.0 0.00 0.00 0.00 78 1014.4
20260904224600 88 0 1.0 3.0 0.00 0.00 0.00 76 1014.2
20260904223103 88 0 1.0 3.0 0.00 0.00 0.00 78 1014.3
20260904221602 87 164 1.0 7.0 0.00 0.00 0.00 78 1014.3
20260904214607 87 194 2.0 7.0 0.00 0.00 0.00 79 1014.1
20260904213102 86 138 3.0 9.0 0.00 0.00 0.00 78 1014.1
20260904211601 86 269 2.0 6.0 0.00 0.00 0.00 79 1014.6
20260904210058 85 0 2.0 11.0 0.00 0.00 0.00 79 1014.9
20260904204602 85 94 2.0 9.0 0.00 0.00 0.00 80 1014.7
20260904203102 84 94 3.0 10.0 0.00 0.00 0.00 82 1014.9
20260904201624 86 53 7.0 18.0 0.00 0.00 0.00 78 1015.4
20260904194556 95 275 4.0 9.0 0.00 0.00 0.00 65 1014.6